Regional Weather Roundup
Issued by NWS

Home | Current Version | Previous Version | Text Only | Print | Product List | Glossary Off
Versions: 1 2 3 4 5 6 7 8 9 10 11 12 13 14 15 16 17 18 19 20 21 22 23 24 25 26 27

000
ASUS45 KBOU 282307
RWRCO

WEATHER ROUNDUP FOR COLORADO
NATIONAL WEATHER SERVICE DENVER/BOULDER CO
500 PM MDT FRI APR 28 2017

NOTE: "FAIR" INDICATES FEW OR NO CLOUDS BELOW 12000 FEET WITH NO
SIGNIFICANT WEATHER AND/OR OBSTRUCTIONS TO VISIBILITY.

COZ001>005-013-030-031-290000-
...NORTHWEST COLORADO...

CITY           SKY/WX    TMP DP  RH WIND       PRES   REMARKS
CRAIG          PTSUNNY   41  23  48 N5        29.79S
HAYDEN         CLOUDY    39  23  52 W13       29.78R
MEEKER         LGT SNOW  36  30  79 SW5       29.80R
MOUNT WERNER   NOT AVBL
STEAMBOAT SPGS CLOUDY    36  27  68 NW12      29.78R
WALDEN           N/A     32  27  80 N14       29.81R WCI  22
$$

COZ006>008-011-290000-
...WEST CENTRAL VALLEYS...

CITY           SKY/WX    TMP DP  RH WIND       PRES   REMARKS
GRAND JUNCTION FAIR      52  12  20 W12       29.74S
MONTROSE       FAIR      43  21  41 SW14      29.77R
EAGLE          MOSUNNY   41  12  30 CALM      29.77S
RIFLE          FAIR      44  27  51 N13G21    29.78S
DELTA          CLOUDY    51  19  27 W15G28    29.73F
NUCLA          CLOUDY    43  27  52 E12       29.82R
$$

COZ017>023-064>068-290000-
...SOUTHWEST COLORADO...

CITY           SKY/WX    TMP DP  RH WIND       PRES   REMARKS
DURANGO        CLOUDY    37  25  61 W10G22    29.75S
CORTEZ         FAIR      45  18  34 N13G22    29.76F
PAGOSA SPRINGS CLOUDY    35  27  71 SE3       29.76R
TELLURIDE      LGT SNOW  26  23  86 NW7       29.77S VSB 3/4 WCI  19
WOLF CREEK PAS LGT SNOW  18  18 100 S12       29.79S WCI   5
$$

COZ009-010-012-014-032>034-037-058>063-290000-
...CENTRAL COLORADO...

CITY           SKY/WX    TMP DP  RH WIND       PRES   REMARKS
ASPEN          PTSUNNY   38  20  48 N8        29.74S
BUENA VISTA    CLOUDY    38  11  33 W9        29.74R
COPPER MTN     SNOW      23  14  68 MISG      29.78R VSB 1/2
BERTHOUD PASS  LGT SNOW  14   3  62 E9        29.78R WCI   2
COTTONWOOD PAS LGT SNOW  32  18  55 CALM      29.76R
GUNNISON       FAIR      39  13  34 NW12      29.73R
KREMMLING      FAIR      48  16  27 SW8G16    29.76R
LEADVILLE      CLOUDY    26  16  65 N8        29.74S WCI  18
SALIDA         CLOUDY    39  20  46 SE5       29.82R
SUNLIGHT       FOG       19  18  93 NW6       29.82R VSB 1/4 WCI  11
WILKERSON PASS LGT SNOW  21  18  86 E9G16     29.80R WCI  11
$$

COZ069>075-290000-
...SAN LUIS VALLEY/SANGRE DE CRISTO MOUNTAINS...

CITY           SKY/WX    TMP DP  RH WIND       PRES   REMARKS
ALAMOSA        LGT RAIN  43  17  35 NW13G21   29.68R
LA VETA PASS   PTSUNNY   34  18  51 S14G23    29.82S WCI  24
SAGUACHE       CLOUDY    36  21  55 N13       29.73S
$$

COZ035-036-038>040-290000-
...NORTHERN COLORADO FRONT RANGE...

CITY           SKY/WX    TMP DP  RH WIND       PRES   REMARKS
DENVER INTL AP PTSUNNY   40  32  73 N26G36    29.80R
DMNS CITY PARK   N/A     39  32  76 N22       29.82R
AURORA         LGT RAIN  36  33  88 N22G28    29.81R
FRONT RANGE AP CLOUDY    37  36  93 N18       29.81R
ERIE MUNI ARPT PTSUNNY   39  34  82 NE21G32   29.83R
BOULDER MUN AP CLOUDY    39  34  81 N22G29    29.83R
CENTENNIAL     LGT SNOW  35  33  92 N12G22    29.81R FOG     WCI  27
BROOMFIELD     CLOUDY    39  32  75 N22G31    29.81R
FORT COLLINS   SNOW      32  31  96 N8        29.88R VSB 1/2 WCI  25
LONGMONT       CLOUDY    40  34  79 N22       29.85R HAZE
$$

COZ041-046-047-076>085-087-088-290000-
...PIKES PEAK/PALMER DIVIDE AND SOUTHERN FOOTHILLS...

CITY           SKY/WX    TMP DP  RH WIND       PRES   REMARKS
COLO. SPRINGS  FLURRIES  43  27  53 W14       29.76R
A. F. ACADEMY  CLOUDY    42  22  45 CALM      29.75R
SCHRIEVER AFB  NOT AVBL
ELLICOTT       FAIR     N/A N/A N/A NE18      29.71R
FALCON         CLOUDY    40  27  59 NE14      29.77R
FORT CARSON    CLOUDY    40  33  73 NW16      29.74F
LIMON          CLOUDY    39  35  86 NE26G35   29.75R
MONUMENT HILL  CLOUDY    41  21  45 CALM      29.77R
TRINIDAD       FAIR      54  28  36 SW23      29.64S
$$

COZ042>045-048>051-090-091-290000-
...NORTHEAST COLORADO...

CITY           SKY/WX    TMP DP  RH WIND       PRES   REMARKS
GREELEY ARPT   MIX PCPN  36  34  92 NE15G22   29.90R
AKRON          LGT RAIN  34  32  92 E17       29.85R FOG     WCI  23
BURLINGTON     NOT AVBL
WRAY           NOT AVBL
STERLING       CLOUDY    34  34 100 E16       29.91R WCI  23
HOLYOKE        CLOUDY    37  36  93 NE16      29.92R
FORT MORGAN    CLOUDY    36  33  87 NE23      29.87R
$$

COZ086-089-092>099-290000-
...SOUTHEAST COLORADO...

CITY           SKY/WX    TMP DP  RH WIND       PRES   REMARKS
PUEBLO         PTSUNNY   57  23  26 SE16      29.65R
LA JUNTA       FAIR      58  32  37 S17       29.66R
LAMAR          FAIR      56  37  49 SE14      29.69R
SPRINGFIELD      N/A     44  38  79 S18       29.72S
$$




USA.gov is the U.S. government's official web portal to all federal, state and local government web resources and services.